This is the latest recevied weather packets stored in our database for station/object EA1EME-3. If no packets are shown the sender has not sent any weather packets the latest 10 day(s).
| Time | Temp. | Humidity | Pressure | Rain* | Wind** | Luminosity | Snow |
|---|---|---|---|---|---|---|---|
| 1787748486 | 21.67° C | 65% | 1006 hPa | - | - | - | - |
| 1787747284 | 22.78° C | 59% | 1006 hPa | - | - | - | - |
| 1787746082 | 23.33° C | 56% | 1006 hPa | - | - | - | - |
| 1787744880 | 23.33° C | 59% | 1006 hPa | - | - | - | - |
| 1787743678 | 23.89° C | 61% | 1006 hPa | - | - | - | - |
| 1787742476 | 23.89° C | 60% | 1006 hPa | - | - | - | - |
| 1787741274 | 23.89° C | 61% | 1006 hPa | - | - | - | - |
| 1787740072 | 23.89° C | 60% | 1006 hPa | - | - | - | - |
| 1787738870 | 23.89° C | 60% | 1006 hPa | - | - | - | - |
| 1787737668 | 23.89° C | 60% | 1006 hPa | - | - | - | - |
| 1787736466 | 23.33° C | 61% | 1007 hPa | - | - | - | - |
| 1787735264 | 22.78° C | 63% | 1007 hPa | - | - | - | - |
| 1787734062 | 22.22° C | 64% | 1007 hPa | - | - | - | - |
| 1787732860 | 21.67° C | 66% | 1007 hPa | - | - | - | - |
| 1787731658 | 20.56° C | 67% | 1007 hPa | - | - | - | - |
| 1787730456 | 20.56° C | 70% | 1007 hPa | - | - | - | - |
| 1787729254 | 20° C | 70% | 1007 hPa | - | - | - | - |
| 1787728052 | 19.44° C | 72% | 1008 hPa | - | - | - | - |
| 1787726850 | 19.44° C | 71% | 1008 hPa | - | - | - | - |
| 1787725648 | 19.44° C | 71% | 1008 hPa | - | - | - | - |
| 1787724446 | 19.44° C | 72% | 1008 hPa | - | - | - | - |
| 1787723244 | 18.89° C | 71% | 1008 hPa | - | - | - | - |
| 1787722042 | 20° C | 71% | 1008 hPa | - | - | - | - |
| 1787720839 | 20° C | 69% | 1008 hPa | - | - | - | - |
| 1787719637 | 20° C | 71% | 1009 hPa | - | - | - | - |
* Rain since midnight (hover to see other rain measurements)
** Current wind speed in m/s (hover to see current wind gust speed)